Date String (YYYY-MM-DD hh:mm:ss) UTC,Instrument flags,Ambient pressure (hPa),Sample flow (lpm),Bypass flow (lpm),Sample temperature (°C),Ambient temperature (°C),ASC tube jacket temperature (°C),LED temperature (°C),Box temperature (°C),Sample RH (%),Span deviation,Mass concentration (μg/m³),Mass concentration (μg/m³),Mass concentration (μg/m³)
DateTimeUTC,F1_M11,P_M11,Q1_M11,Q2_M11,T1_M11,T2_M11,T3_M11,T4_M11,T5_M11,U1_M11,ZSPAN_M11,X0_M11,X2_M11,X1_M11
2022-03-15 22:00:00,,0824.2,5.00,0.00,27.9,27.1,00.0,36.8,29.7,03.8,0000.0,0002.06,0000.98,0000.52
2022-03-15 22:01:00,,0824.2,4.99,0.00,27.9,27.2,00.0,36.8,29.7,03.7,0000.0,0002.03,0000.96,0000.52
2022-03-15 22:02:00,,0824.3,4.99,0.00,27.9,27.2,00.0,36.8,29.7,03.7,0000.0,0002.04,0000.95,0000.52
2022-03-15 22:03:00,,0824.2,5.00,0.00,27.9,27.2,00.0,36.8,29.7,03.9,0000.0,0002.65,0000.93,0000.52
2022-03-15 22:04:00,,0824.2,4.99,0.00,27.9,27.2,00.0,36.8,29.7,03.8,0000.0,0002.68,0000.95,0000.52
2022-03-15 22:05:00,,0824.2,5.01,0.00,27.9,27.2,00.0,36.8,29.7,03.8,0000.0,0002.73,0000.96,0000.53
2022-03-15 22:06:00,,0824.2,5.00,0.00,27.9,27.1,00.0,36.8,29.7,03.9,0000.0,0002.59,0000.90,0000.52
2022-03-15 22:07:00,,0824.2,4.98,0.00,27.9,27.1,00.0,36.8,29.7,03.7,0000.0,0002.55,0000.88,0000.52
2022-03-15 22:08:00,,0824.3,5.00,0.00,27.9,27.1,00.0,36.8,29.7,03.9,0000.0,0002.36,0000.82,0000.50
2022-03-15 22:09:00,,0824.2,5.00,0.00,27.9,27.1,00.0,36.8,29.6,04.1,0000.0,0002.30,0000.79,0000.50
2022-03-15 22:10:00,,0824.2,5.02,0.00,27.9,27.1,00.0,36.8,29.7,04.0,0000.0,0002.30,0000.79,0000.50
2022-03-15 22:11:00,,0824.2,5.00,0.00,27.9,27.1,00.0,36.8,29.7,03.9,0000.0,0002.29,0000.79,0000.50
2022-03-15 22:12:00,,0824.2,5.00,0.00,27.9,27.1,00.0,36.8,29.7,03.9,0000.0,0002.44,0000.81,0000.50
2022-03-15 22:13:00,,0824.2,5.00,0.00,27.9,27.1,00.0,36.8,29.7,04.0,0000.0,0002.36,0000.82,0000.50
2022-03-15 22:14:00,,0824.2,5.00,0.00,27.9,27.1,00.0,36.8,29.7,04.0,0000.0,0001.64,0000.82,0000.49
2022-03-15 22:15:00,,0824.2,5.02,0.00,27.9,27.1,00.0,36.8,29.7,04.1,0000.0,0001.72,0000.84,0000.49
2022-03-15 22:16:00,,0824.2,4.99,0.00,27.9,27.1,00.0,36.8,29.7,04.0,0000.0,0001.74,0000.85,0000.49
2022-03-15 22:17:00,,0824.1,4.99,0.00,27.9,27.1,00.0,36.8,29.7,04.1,0000.0,0001.76,0000.87,0000.49
2022-03-15 22:18:00,,0824.1,4.99,0.00,27.9,27.1,00.0,36.8,29.7,04.0,0000.0,0001.78,0000.85,0000.49
2022-03-15 22:19:00,,0824.1,4.99,0.00,27.9,27.1,00.0,36.8,29.7,03.9,0000.0,0001.76,0000.83,0000.50
2022-03-15 22:20:00,,0824.1,5.01,0.00,27.9,27.1,00.0,36.8,29.7,03.9,0000.0,0001.80,0000.85,0000.51
2022-03-15 22:21:00,,0824.1,4.99,0.00,27.9,27.1,00.0,36.8,29.6,04.1,0000.0,0001.90,0000.90,0000.51
2022-03-15 22:22:00,,0824.1,5.00,0.00,27.9,27.1,00.0,36.8,29.6,04.0,0000.0,0002.22,0000.94,0000.52
2022-03-15 22:23:00,,0824.1,5.01,0.00,27.9,27.1,00.0,36.8,29.7,04.1,0000.0,0003.24,0001.10,0000.54
2022-03-15 22:24:00,,0824.1,5.00,0.00,27.9,27.0,00.0,36.8,29.7,04.0,0000.0,0004.75,0001.20,0000.55
2022-03-15 22:25:00,,0824.1,5.00,0.00,27.9,27.0,00.0,36.8,29.7,04.2,0000.0,0005.56,0001.29,0000.56
2022-03-15 22:26:00,,0824.1,5.00,0.00,27.9,27.0,00.0,36.8,29.7,04.2,0000.0,0005.53,0001.28,0000.57
2022-03-15 22:27:00,,0824.1,5.02,0.00,27.9,27.1,00.0,36.8,29.7,04.2,0000.0,0005.51,0001.27,0000.56
2022-03-15 22:28:00,,0824.1,5.00,0.00,27.9,27.1,00.0,36.8,29.7,04.3,0000.0,0005.49,0001.27,0000.56
2022-03-15 22:29:00,,0824.0,4.99,0.00,27.9,27.1,00.0,36.8,29.7,04.2,0000.0,0005.38,0001.26,0000.56
2022-03-15 22:30:00,,0824.1,5.00,0.00,27.9,27.1,00.0,36.8,29.7,04.1,0000.0,0005.40,0001.27,0000.56
2022-03-15 22:31:00,,0824.1,5.02,0.00,27.9,27.1,00.0,36.8,29.7,04.0,0000.0,0005.36,0001.25,0000.55
2022-03-15 22:32:00,,0824.1,5.00,0.00,27.9,27.1,00.0,36.8,29.6,04.1,0000.0,0005.22,0001.19,0000.54
2022-03-15 22:33:00,,0824.1,4.99,0.00,27.9,27.1,00.0,36.8,29.7,04.1,0000.0,0004.92,0001.14,0000.53
2022-03-15 22:34:00,,0824.0,5.02,0.00,27.9,27.1,00.0,36.8,29.7,04.2,0000.0,0003.79,0000.96,0000.51
2022-03-15 22:35:00,,0824.0,5.00,0.00,27.9,27.1,00.0,36.8,29.7,04.2,0000.0,0002.26,0000.86,0000.49
2022-03-15 22:36:00,,0823.9,4.99,0.00,27.9,27.1,00.0,36.8,29.7,04.2,0000.0,0001.57,0000.77,0000.49
2022-03-15 22:37:00,,0824.0,5.01,0.00,27.9,27.1,00.0,36.8,29.7,04.1,0000.0,0001.44,0000.72,0000.48
2022-03-15 22:38:00,,0824.0,5.01,0.00,27.9,27.1,00.0,36.8,29.8,04.2,0000.0,0001.40,0000.70,0000.48
2022-03-15 22:39:00,,0823.9,4.99,0.00,27.9,27.1,00.0,36.8,29.7,04.0,0000.0,0001.38,0000.69,0000.48
2022-03-15 22:40:00,,0823.8,4.99,0.00,27.9,27.1,00.0,36.8,29.8,04.2,0000.0,0001.41,0000.70,0000.47
2022-03-15 22:41:00,,0823.9,5.00,0.00,28.0,27.1,00.0,36.8,29.8,04.2,0000.0,0001.41,0000.70,0000.48
2022-03-15 22:42:00,,0823.9,5.00,0.00,28.0,27.1,00.0,36.8,29.8,04.1,0000.0,0001.38,0000.69,0000.47
2022-03-15 22:43:00,,0823.9,5.01,0.00,28.0,27.1,00.0,36.8,29.8,04.2,0000.0,0001.43,0000.71,0000.48
2022-03-15 22:44:00,,0823.8,4.99,0.00,28.0,27.1,00.0,36.8,29.8,04.2,0000.0,0001.44,0000.76,0000.49
2022-03-15 22:45:00,,0823.8,5.00,0.00,28.0,27.1,00.0,36.8,29.8,04.2,0000.0,0001.42,0000.76,0000.49
2022-03-15 22:46:00,,0823.8,5.00,0.00,28.0,27.1,00.0,36.8,29.8,04.3,0000.0,0001.42,0000.77,0000.51
2022-03-15 22:47:00,,0823.8,5.02,0.00,28.0,27.1,00.0,36.8,29.8,04.1,0000.0,0001.38,0000.76,0000.50
2022-03-15 22:48:00,,0823.7,4.99,0.00,28.0,27.2,00.0,36.8,29.8,04.3,0000.0,0001.41,0000.77,0000.51
2022-03-15 22:49:00,,0823.8,4.99,0.00,28.0,27.2,00.0,36.9,29.8,04.4,0000.0,0001.47,0000.80,0000.50
2022-03-15 22:50:00,,0823.8,4.99,0.00,28.0,27.2,00.0,36.9,29.8,04.2,0000.0,0001.57,0000.81,0000.49
2022-03-15 22:51:00,,0823.7,5.00,0.00,28.0,27.2,00.0,36.9,29.8,04.3,0000.0,0001.64,0000.83,0000.49
2022-03-15 22:52:00,,0823.7,5.00,0.00,28.0,27.2,00.0,36.9,29.8,04.3,0000.0,0001.69,0000.85,0000.49
2022-03-15 22:53:00,,0823.7,5.01,0.00,28.0,27.2,00.0,36.9,29.8,04.2,0000.0,0001.81,0000.91,0000.49
2022-03-15 22:54:00,,0823.7,4.98,0.00,28.0,27.2,00.0,36.9,29.8,04.2,0000.0,0001.90,0000.94,0000.49
2022-03-15 22:55:00,,0823.7,5.00,0.00,28.0,27.2,00.0,36.9,29.8,04.5,0000.0,0001.98,0000.93,0000.49
2022-03-15 22:56:00,,0823.6,4.99,0.00,28.0,27.2,00.0,36.9,29.8,04.4,0000.0,0002.06,0000.93,0000.49
2022-03-15 22:57:00,,0823.6,5.03,0.00,28.0,27.2,00.0,36.9,29.8,04.3,0000.0,0001.93,0000.91,0000.48
2022-03-15 22:58:00,,0823.7,5.01,0.00,28.0,27.2,00.0,36.9,29.8,04.3,0000.0,0001.95,0000.93,0000.49
2022-03-15 22:59:00,,0823.7,5.00,0.00,28.0,27.2,00.0,36.9,29.8,04.2,0000.0,0002.00,0000.95,0000.49
